User: anonymous
Location: Fort Wayne
(41.1310°N, 85.1290°W)
Time: 17:59:49
(UTC-04:00)
Language:

Helios 1B - Orbit

View from above orbital plane
View from above orbital plane
View from above satellite
View from above satellite

Ground track
Ground track

The orbit data is extracted from the following two-line orbital elements,

1 25977U 99064A   14233.30572005  .00000473  00000-0  69110-4 0  3374
2 25977 098.1628 311.8506 0001735 068.6867 331.5994 14.80391964791362
Epoch (UTC): 21 August 2014 07:20:14
Eccentricity: 0.0001735
inclination: 98.1628°
perigee height: 627 km
apogee height: 629 km
right ascension of ascending node: 311.8506°
argument of perigee: 68.6867°
revolutions per day: 14.80391964
mean anomaly at epoch: 331.5994°
orbit number at epoch: 79136

The dashed part of the orbit path shows where the satellite is in the earth's shadow,  

DLR